Location: Woodhurst
(52.3667°N, 0.0667°W)
Time: 20:33:08
(UTC+00:00)

USA 234 - Pass Details

Date: 19 May 2025
Orbit: 1097 x 1111 km, 123.0° (Epoch: 13 June)

Event Time Altitude Azimuth Distance (km) Brightness Sun altitude
Rises 20:48:34 0° 59° (ENE) 3,927 6.0 -6.9°
Reaches altitude 10° 20:51:09 10° 65° (ENE) 2,968 5.4 -7.2°
Maximum altitude 20:57:29 49° 139° (SE) 1,399 3.5 -7.9°
Drops below altitude 10° 21:03:48 10° 213° (SSW) 2,965 5.4 -8.5°
Sets 21:06:23 0° 219° (SW) 3,922 6.0 -8.7°
